Tracking 21473 objects as of 19-Sep-2020
HD Live streaming from Space Station
objects crossing your sky now

OPTUS B1 R/B(STAR 63F)

Track OPTUS B1 R/B(STAR 63F) now!


NORAD ID: 22089
Int'l Code: 1992-054C
Perigee: 389.7 km
Apogee: 36,417.4 km
Inclination: 22.8 °
Period: 646.8 minutes
Semi major axis: 24774 km
RCS: 6.8742 m2 (large)
Launch date: August 13, 1992
Source: Australia (AUS)
Launch site: Xichang Space Center, China (XSC)

Note: This is a ROCKET BODY
aabbcc
Your satellite tracking list
Your tracking list is empty




NASA's NSSDC Master Catalog

Two Line Element Set (TLE):
1 22089U 92054C   20262.39179557 -.00000033  00000-0  12897-3 0  9996
2 22089  22.7732 250.1985 7271105  88.4262 345.8316  2.22635098226039
Source of the keplerian elements: AFSPC